Sigfox identifier Datetime Temperature Humidity SNR
002F06A4 2019-04-23 14:51:18 16.4 33 24.6
002F06A4 2019-04-23 14:18:05 16.3 33 24.4
002F06A4 2019-04-23 13:44:53 16.2 33 24
002F06A4 2019-04-23 13:11:39 16.1 33 23.6
002F06A4 2019-04-23 12:38:26 16.1 33 23.2
002F06A4 2019-04-23 12:05:14 15.9 33 23
002F06A4 2019-04-23 11:32:00 15.9 33 22.1
002F06A4 2019-04-23 10:58:47 15.9 33 21.8
002F06A4 2019-04-23 10:25:34 15.9 33 21.2
002F06A4 2019-04-23 09:52:22 15.7 33 20.2
002F06A4 2019-04-23 09:19:09 15.7 33 19.3
002F06A4 2019-04-23 08:45:57 15.7 33 17.7
002F06A4 2019-04-23 08:12:43 15.7 33 13.7
002F06A4 2019-04-23 07:39:31 15.7 33 13.8
002F06A4 2019-04-23 07:06:18 15.7 33 13.6
002F06A4 2019-04-23 06:33:05 15.7 33 13.4
002F06A4 2019-04-23 05:59:52 15.7 33 13.3
002F06A4 2019-04-23 05:26:38 15.6 33 13.3
002F06A4 2019-04-23 04:53:27 15.6 33 13.4
002F06A4 2019-04-23 04:20:14 15.6 33 13.6
002F06A4 2019-04-23 03:47:00 15.7 33 13.6
002F06A4 2019-04-23 03:13:46 15.5 33 13.9
002F06A4 2019-04-23 02:40:32 15.6 33 14.2
002F06A4 2019-04-23 02:07:19 15.7 33 14.4
002F06A4 2019-04-23 01:34:11 15.7 33 15
002F06A4 2019-04-23 01:00:53 15.7 33 15.7
002F06A4 2019-04-23 00:27:40 15.7 33 16
002F06A4 2019-04-22 23:54:28 15.7 33 16.4
002F06A4 2019-04-22 23:21:14 15.7 33 16.5
002F06A4 2019-04-22 22:48:00 15.7 33 16.5
002F06A4 2019-04-22 22:14:47 15.7 33 16.7
002F06A4 2019-04-22 21:41:34 15.8 33 16.7
002F06A4 2019-04-22 21:08:20 15.9 33 16.7
002F06A4 2019-04-22 20:35:06 15.9 33 16.9
002F06A4 2019-04-22 20:01:53 15.9 33 16.9
002F06A4 2019-04-22 19:28:38 15.9 33 16.8
002F06A4 2019-04-22 18:55:24 15.9 33 16.8
002F06A4 2019-04-22 18:22:09 16.1 33 16.8
002F06A4 2019-04-22 17:48:54 16.1 33 16.9
002F06A4 2019-04-22 17:15:41 16.1 33 16.9
002F06A4 2019-04-22 16:42:26 15.9 33 16.9
002F06A4 2019-04-22 16:09:12 15.9 33 16.9
002F06A4 2019-04-22 15:35:59 15.9 33 16.9
002F06A4 2019-04-22 15:02:45 15.9 33 17
002F06A4 2019-04-22 14:29:32 15.9 33 17
002F06A4 2019-04-22 13:56:18 15.9 33 16.9
002F06A4 2019-04-22 13:23:03 15.9 32 16.8
002F06A4 2019-04-22 12:49:49 15.8 32 16.7
002F06A4 2019-04-22 12:16:36 15.8 32 16.6
002F06A4 2019-04-22 11:43:21 15.7 32 16.3
002F06A4 2019-04-22 11:10:08 15.8 32 16.1
002F06A4 2019-04-22 10:36:54 15.8 32 15.8
002F06A4 2019-04-22 10:03:41 15.7 32 15.6
002F06A4 2019-04-22 09:30:28 15.7 32 15.4
002F06A4 2019-04-22 08:57:14 15.7 32 15.5
002F06A4 2019-04-22 08:24:02 15.7 32 15.7
002F06A4 2019-04-22 07:50:50 15.7 32 15.8
002F06A4 2019-04-22 07:17:36 15.7 32 15.9
002F06A4 2019-04-22 06:44:23 15.7 32 15.8
002F06A4 2019-04-22 06:11:13 15.7 32 15.9
002F06A4 2019-04-22 05:37:56 15.7 32 16.2
002F06A4 2019-04-22 05:04:43 15.7 32 16.4
002F06A4 2019-04-22 04:31:30 15.7 32 16.8
002F06A4 2019-04-22 03:58:16 15.7 32 17
002F06A4 2019-04-22 03:25:03 15.6 32 17.3
002F06A4 2019-04-22 02:51:51 15.7 32 17.3
002F06A4 2019-04-22 02:18:37 15.5 32 17.4
002F06A4 2019-04-22 01:45:23 15.6 32 17.4
002F06A4 2019-04-22 01:12:11 15.5 32 17.6
002F06A4 2019-04-22 00:38:58 15.5 32 17.8
002F06A4 2019-04-22 00:05:44 15.5 32 18
002F06A4 2019-04-21 23:32:31 15.5 32 18.1
002F06A4 2019-04-21 22:59:16 15.5 32 20.2
002F06A4 2019-04-21 22:26:02 15.5 32 20.2
002F06A4 2019-04-21 21:52:50 15.5 32 20.4
002F06A4 2019-04-21 21:19:36 15.5 32 20.3
002F06A4 2019-04-21 20:46:23 15.5 32 20.4
002F06A4 2019-04-21 20:13:10 15.5 32 20.4
002F06A4 2019-04-21 19:39:58 15.5 32 20.5
002F06A4 2019-04-21 19:06:46 15.5 32 20.5
002F06A4 2019-04-21 18:33:33 15.5 32 20.4
002F06A4 2019-04-21 18:00:20 15.5 32 20.4
002F06A4 2019-04-21 17:27:07 15.5 32 20.2
002F06A4 2019-04-21 16:53:53 15.5 32 20.2
002F06A4 2019-04-21 16:20:40 15.5 32 20.1
002F06A4 2019-04-21 15:47:26 15.5 32 20.1
002F06A4 2019-04-21 15:14:13 15.5 32 19.9
002F06A4 2019-04-21 14:41:00 15.5 32 19.7
002F06A4 2019-04-21 14:07:49 15.5 32 19.6
002F06A4 2019-04-21 13:34:36 15.5 32 19.5
002F06A4 2019-04-21 13:01:23 15.5 32 19.5
002F06A4 2019-04-21 12:28:11 15.5 32 19.5
002F06A4 2019-04-21 11:54:58 15.4 32 19.4
002F06A4 2019-04-21 11:21:45 15.5 31 19.3
002F06A4 2019-04-21 10:48:32 15.5 31 19.1
002F06A4 2019-04-21 10:15:20 15.5 31 19
002F06A4 2019-04-21 09:42:07 15.5 31 18.8
002F06A4 2019-04-21 09:08:54 15.6 31 15.7
002F06A4 2019-04-21 08:35:40 15.7 31 15.5
002F06A4 2019-04-21 08:02:26 15.7 31 15.4
002F06A4 2019-04-21 07:29:12 15.7 31 15.2
002F06A4 2019-04-21 06:56:00 15.7 31 14.9
002F06A4 2019-04-21 06:22:45 15.7 31 14.5
002F06A4 2019-04-21 05:49:32 15.7 31 14.4
002F06A4 2019-04-21 05:16:19 15.7 31 14.3
002F06A4 2019-04-21 04:43:06 15.7 31 14.3
002F06A4 2019-04-21 04:09:52 15.7 31 14.9
002F06A4 2019-04-21 03:36:38 15.7 31 15.1
002F06A4 2019-04-21 03:03:25 15.7 31 15.5
002F06A4 2019-04-21 02:30:11 15.7 31 15.6
002F06A4 2019-04-21 01:56:57 15.5 31 15.8
002F06A4 2019-04-21 01:23:43 15.6 31 15.9
002F06A4 2019-04-21 00:50:28 15.5 31 15.9
002F06A4 2019-04-21 00:17:13 15.6 31 16
002F06A4 2019-04-20 23:43:58 15.5 31 16.1
002F06A4 2019-04-20 23:10:43 15.5 31 16.4
002F06A4 2019-04-20 22:37:30 15.5 31 16.8
002F06A4 2019-04-20 22:04:16 15.5 31 17.2
002F06A4 2019-04-20 21:31:01 15.5 31 17.3
002F06A4 2019-04-20 20:57:47 15.5 31 17.4
002F06A4 2019-04-20 20:24:34 15.5 31 17.4
002F06A4 2019-04-20 19:51:22 15.5 31 17.4
002F06A4 2019-04-20 19:18:08 15.5 31 17.4
002F06A4 2019-04-20 18:44:54 15.6 31 17.2
002F06A4 2019-04-20 18:11:41 15.6 31 17.2
002F06A4 2019-04-20 17:38:27 15.6 31 17.1
002F06A4 2019-04-20 17:05:14 15.5 31 17
002F06A4 2019-04-20 16:31:59 15.5 31 17
002F06A4 2019-04-20 15:58:45 15.6 31 16.9
002F06A4 2019-04-20 15:25:31 15.5 31 16.8
002F06A4 2019-04-20 14:52:19 15.5 31 16.8
002F06A4 2019-04-20 14:19:07 15.5 31 16.5
002F06A4 2019-04-20 13:45:54 15.5 31 16.2
002F06A4 2019-04-20 13:12:41 15.5 31 16
002F06A4 2019-04-20 12:39:28 15.5 31 15.7
002F06A4 2019-04-20 12:06:16 15.5 31 15.6
002F06A4 2019-04-20 11:33:03 15.6 30 15.4
002F06A4 2019-04-20 10:59:50 15.6 30 15.3
002F06A4 2019-04-20 10:26:37 15.5 30 15.2
002F06A4 2019-04-20 09:53:24 15.6 30 15.1
002F06A4 2019-04-20 09:20:11 15.6 30 14.7
002F06A4 2019-04-20 08:46:58 15.7 30 14
002F06A4 2019-04-20 08:13:45 15.7 30 13.6
002F06A4 2019-04-20 07:40:32 15.7 30 13.6
002F06A4 2019-04-20 07:07:19 15.8 30 13.8
002F06A4 2019-04-20 06:34:06 15.7 30 14
002F06A4 2019-04-20 06:00:55 15.7 30 14.5
002F06A4 2019-04-20 05:27:41 15.7 30 14.6
002F06A4 2019-04-20 04:54:27 15.7 30 15
002F06A4 2019-04-20 04:21:16 15.7 30 15.1
002F06A4 2019-04-20 03:48:03 15.7 30 15.3
002F06A4 2019-04-20 02:41:38 15.9 30 15.9
002F06A4 2019-04-20 02:08:25 15.8 30 16
002F06A4 2019-04-20 01:35:11 15.9 30 16.3
002F06A4 2019-04-20 01:02:01 15.9 30 16.9
002F06A4 2019-04-20 00:28:46 15.9 30 17
002F06A4 2019-04-19 23:55:34 15.9 30 17.2
002F06A4 2019-04-19 23:22:21 15.9 30 17.2
002F06A4 2019-04-19 22:49:14 16 30 17.3
002F06A4 2019-04-19 22:15:58 16.1 30 17.7
002F06A4 2019-04-19 21:42:42 16.1 30 17.8
002F06A4 2019-04-19 21:09:29 16.1 30 17.9
002F06A4 2019-04-19 20:36:17 16.1 30 17.9
002F06A4 2019-04-19 20:03:06 16.1 30 17.8
002F06A4 2019-04-19 19:29:51 16.1 30 17.8
002F06A4 2019-04-19 18:56:38 16.1 30 17.7
002F06A4 2019-04-19 18:23:24 16.3 30 17.7
002F06A4 2019-04-19 17:50:11 16.3 30 17.5
002F06A4 2019-04-19 17:16:58 16.2 30 17.5
002F06A4 2019-04-19 16:43:45 16.1 30 17.2
002F06A4 2019-04-19 16:10:33 16.1 30 17.2
002F06A4 2019-04-19 15:37:21 16.1 30 16.9
002F06A4 2019-04-19 15:04:09 16.1 29 16.8
002F06A4 2019-04-19 14:30:56 16.1 29 16.6
002F06A4 2019-04-19 13:57:44 16 29 16.2
002F06A4 2019-04-19 13:24:31 16 29 16.2
002F06A4 2019-04-19 12:51:18 15.9 29 15.8
002F06A4 2019-04-19 12:18:06 15.9 29 15.4
002F06A4 2019-04-19 11:44:55 15.9 29 15.2
002F06A4 2019-04-19 11:11:44 15.9 29 14.9
002F06A4 2019-04-19 10:38:31 15.9 29 14.9
002F06A4 2019-04-19 10:05:20 15.9 29 15.2
002F06A4 2019-04-19 09:32:07 15.9 29 15.1
002F06A4 2019-04-19 08:58:55 15.9 29 14.9
002F06A4 2019-04-19 08:25:42 15.9 29 16.9
002F06A4 2019-04-19 07:52:29 15.9 29 17.7
002F06A4 2019-04-19 07:19:16 15.9 29 18.7
002F06A4 2019-04-19 06:46:03 15.9 29 20.2
002F06A4 2019-04-19 06:12:51 15.9 29 21.1
002F06A4 2019-04-19 05:39:38 15.9 29 22.3
002F06A4 2019-04-19 04:33:12 15.9 29 23.2
002F06A4 2019-04-19 03:59:59 15.9 29 23.5
002F06A4 2019-04-19 03:26:49 16.1 29 24.4
002F06A4 2019-04-19 02:53:33 16 29 25
002F06A4 2019-04-19 02:20:20 15.9 29 25
002F06A4 2019-04-19 01:47:05 16.1 29 25.2
002F06A4 2019-04-19 01:13:54 16.1 29 25.5
002F06A4 2019-04-19 00:40:37 16.1 29 25.8
002F06A4 2019-04-19 00:07:25 16.3 29 26.1
002F06A4 2019-04-18 23:34:10 16.3 29 26.3
002F06A4 2019-04-18 23:00:55 16.3 29 26.5
002F06A4 2019-04-18 22:27:41 16.5 29 26.6
002F06A4 2019-04-18 21:54:26 16.5 29 26.6
002F06A4 2019-04-18 21:21:12 16.5 29 26.7
002F06A4 2019-04-18 20:47:58 16.5 28 26.7
002F06A4 2019-04-18 20:14:45 16.5 28 26.7
002F06A4 2019-04-18 19:41:32 16.6 28 26.7
002F06A4 2019-04-18 19:08:20 16.5 28 26.5
002F06A4 2019-04-18 18:35:05 16.5 28 26.4
002F06A4 2019-04-18 18:01:51 16.5 28 26.3
002F06A4 2019-04-18 17:28:37 16.6 28 26
002F06A4 2019-04-18 16:55:25 16.5 28 25.7
002F06A4 2019-04-18 16:22:12 16.5 28 25.2
002F06A4 2019-04-18 15:48:59 16.5 28 25.1
002F06A4 2019-04-18 15:15:46 16.5 28 24.6
002F06A4 2019-04-18 14:42:34 16.3 28 24.4
002F06A4 2019-04-18 14:09:21 16.3 28 23.9
002F06A4 2019-04-18 13:36:09 16.3 28 23.5
002F06A4 2019-04-18 13:02:57 16.1 28 22.9
002F06A4 2019-04-18 12:29:44 16.1 28 23.1
002F06A4 2019-04-18 11:56:31 16.1 28 23.1
002F06A4 2019-04-18 11:23:17 16.1 28 22.9
002F06A4 2019-04-18 10:50:06 16.3 28 23
002F06A4 2019-04-18 10:16:50 16.2 28 22.9
002F06A4 2019-04-18 09:43:37 16.1 28 22.9
002F06A4 2019-04-18 09:10:23 16.1 27 22.7
002F06A4 2019-04-18 08:37:09 16.1 27 22.9
002F06A4 2019-04-18 08:03:55 16.2 28 23.3
002F06A4 2019-04-18 07:30:41 16.1 28 23.2
002F06A4 2019-04-18 06:57:28 16.1 27 23.3
002F06A4 2019-04-18 06:24:15 16.1 27 23.7
002F06A4 2019-04-18 05:51:01 16.1 27 24
002F06A4 2019-04-18 05:17:47 16.1 27 24.6
002F06A4 2019-04-18 04:44:34 16.1 27 25.1
002F06A4 2019-04-18 04:11:22 16.1 27 25.3
002F06A4 2019-04-18 03:38:05 16.1 27 25.4
002F06A4 2019-04-18 03:04:51 16.1 27 25.5
002F06A4 2019-04-18 02:31:37 16.1 27 25.6
002F06A4 2019-04-18 01:58:23 16.2 27 25.6
002F06A4 2019-04-18 01:25:09 16.3 27 25.7
002F06A4 2019-04-18 00:51:56 16.4 27 25.8
002F06A4 2019-04-18 00:18:42 16.5 27 25.9
002F06A4 2019-04-17 23:45:29 16.6 27 25.9
002F06A4 2019-04-17 23:12:16 16.7 27 25.9
002F06A4 2019-04-17 22:39:04 16.7 27 25.7
002F06A4 2019-04-17 22:05:51 16.8 27 25.6
002F06A4 2019-04-17 21:32:39 16.7 27 25.5
002F06A4 2019-04-17 20:59:27 16.7 27 25.2
002F06A4 2019-04-17 20:26:14 16.5 27 25.4
002F06A4 2019-04-17 19:53:01 16.6 27 25.2
002F06A4 2019-04-17 19:19:49 16.7 26 25.1
002F06A4 2019-04-17 18:46:34 16.6 26 25.5
002F06A4 2019-04-17 18:13:22 16.7 26 25.2
002F06A4 2019-04-17 17:40:10 16.7 26 25.1
002F06A4 2019-04-17 17:06:58 16.6 26 25.2
002F06A4 2019-04-17 16:33:45 16.6 26 25
002F06A4 2019-04-17 16:00:33 16.6 26 24.8
002F06A4 2019-04-17 15:27:19 16.6 26 24.4
002F06A4 2019-04-17 14:54:06 16.7 26 23.8
002F06A4 2019-04-17 14:20:54 16.8 26 23.7
002F06A4 2019-04-17 13:14:27 17.2 26 23.6
002F06A4 2019-04-17 12:41:16 17.1 26 23.8
002F06A4 2019-04-17 12:08:04 17 26 23.6
002F06A4 2019-04-17 11:34:51 17 26 23.7
002F06A4 2019-04-17 11:01:40 16.9 25 23.6
002F06A4 2019-04-17 10:28:27 16.8 25 23.6
002F06A4 2019-04-17 09:55:16 16.8 25 23.4
002F06A4 2019-04-17 09:22:04 16.8 25 23.4
002F06A4 2019-04-17 08:48:53 16.8 25 23.3
002F06A4 2019-04-17 08:15:41 17 25 23.3
002F06A4 2019-04-17 07:42:29 17.2 25 23.2
002F06A4 2019-04-17 07:09:18 17.2 25 23.1
002F06A4 2019-04-17 06:36:06 17.4 25 23.2
002F06A4 2019-04-17 06:02:53 17.5 25 22.9
002F06A4 2019-04-17 05:29:41 17.5 25 22.9
002F06A4 2019-04-17 04:56:30 17.6 25 23.3
002F06A4 2019-04-17 04:23:18 17.6 25 22.7
002F06A4 2019-04-17 03:50:08 17.6 24 22.8
002F06A4 2019-04-17 03:16:57 17.8 24 22.7
002F06A4 2019-04-17 02:43:45 17.8 24 22.5
002F06A4 2019-04-17 02:10:35 18 24 22.2
002F06A4 2019-04-17 01:37:24 17.9 24 22.1
002F06A4 2019-04-17 01:04:13 18 24 21.9
002F06A4 2019-04-17 00:31:03 17.9 24 21.7
002F06A4 2019-04-16 23:57:51 17.9 24 21.5
002F06A4 2019-04-16 23:24:40 17.8 24 21.2
002F06A4 2019-04-16 22:51:29 17.8 24 20.9
002F06A4 2019-04-16 22:18:16 18.3 23 20.9
002F06A4 2019-04-16 21:45:04 18.4 23 21.9
002F06A4 2019-04-16 21:11:52 18.7 23 21.8
002F06A4 2019-04-16 20:38:39 18.8 23 21.8
002F06A4 2019-04-16 20:05:28 18.9 23 21.8
002F06A4 2019-04-16 19:32:14 18.9 23 21.7
002F06A4 2019-04-16 18:59:02 19 23 21.7
002F06A4 2019-04-16 18:25:50 18.9 23 21.7
002F06A4 2019-04-16 17:52:38 19.1 23 21.6
002F06A4 2019-04-16 17:19:28 19.2 23 21.6
002F06A4 2019-04-16 16:46:14 19.3 23 21.5
002F06A4 2019-04-16 16:13:02 19.5 22 20.5
002F06A4 2019-04-16 15:39:51 19.6 22 20.4
002F06A4 2019-04-16 15:06:39 19.9 22 19.3
002F06A4 2019-04-16 14:33:27 20.4 22 18.7
002F06A4 2019-04-16 14:00:17 21.1 22 18.3
002F06A4 2019-04-16 13:27:07 21 22 18.3
002F06A4 2019-04-16 12:53:57 21 22 18.3
002F06A4 2019-04-16 12:20:45 21 22 18.3
002F06A4 2019-04-16 11:47:30 21 22 18.3
002F06A4 2019-04-16 11:14:19 21 22 18.4
002F06A4 2019-04-16 10:41:07 21 22 18.4
002F06A4 2019-04-16 10:07:58 21 22 18.5
002F06A4 2019-04-16 09:34:48 20.9 22 18.6
002F06A4 2019-04-16 09:01:35 20.8 22 18.6
002F06A4 2019-04-16 08:28:26 20.9 22 18.5
002F06A4 2019-04-16 07:55:17 20.9 22 15.1
002F06A4 2019-04-16 07:22:06 20.9 22 15.1
002F06A4 2019-04-16 06:48:55 20.9 22 15.2
002F06A4 2019-04-16 06:15:45 20.9 22 15.1
002F06A4 2019-04-16 05:42:34 20.9 22 14.9
002F06A4 2019-04-16 05:09:23 20.9 22 14.7
002F06A4 2019-04-16 04:36:11 21 22 14.7
002F06A4 2019-04-16 04:03:01 21 22 14.5
002F06A4 2019-04-16 03:29:49 21 22 14.6
002F06A4 2019-04-16 02:56:39 21 22 14.4
002F06A4 2019-04-16 02:23:29 21 22 17.9
002F06A4 2019-04-16 01:50:18 21 22 18.9
002F06A4 2019-04-16 01:17:08 21 21 20.3
002F06A4 2019-04-16 00:43:57 21 21 21
002F06A4 2019-04-16 00:10:48 21 21 21.5
002F06A4 2019-04-15 23:37:36 21 21 22
002F06A4 2019-04-15 23:04:26 21 21 22.4
002F06A4 2019-04-15 22:31:16 21 21 22.7
002F06A4 2019-04-15 21:58:06 21 21 23.3
002F06A4 2019-04-15 21:24:55 21 21 23.6
002F06A4 2019-04-15 20:51:44 21 21 23.9
002F06A4 2019-04-15 20:18:32 21 21 24.3
002F06A4 2019-04-15 19:45:21 21 21 24.9
002F06A4 2019-04-15 19:12:10 21 21 25.1
002F06A4 2019-04-15 18:38:59 21 20 25.3
002F06A4 2019-04-15 18:05:47 21.1 20 25.5
002F06A4 2019-04-15 17:32:36 21.2 20 25.7
002F06A4 2019-04-15 16:59:26 21.3 20 25.8
002F06A4 2019-04-15 16:26:13 21.3 20 26.2
002F06A4 2019-04-15 15:53:01 21.4 20 26.3
002F06A4 2019-04-15 15:19:52 21.5 20 26.7
002F06A4 2019-04-15 14:13:29 21.7 19 26.9
002F06A4 2019-04-15 13:40:19 21.8 19 27.1
002F06A4 2019-04-15 13:07:11 22 18 27.2
002F06A4 2019-04-15 12:33:56 22.3 18 27.3
002F06A4 2019-04-15 12:00:46 22.3 16 27.1
002F06A4 2019-04-15 11:27:36 22.3 16 27.2
002F06A4 2019-04-15 10:54:25 22.1 17 27
002F06A4 2019-04-15 10:21:13 22.1 17 27
002F06A4 2019-04-15 09:48:03 22.1 18 27
002F06A4 2019-04-15 09:14:53 22.1 18 27
002F06A4 2019-04-15 08:41:41 22 17 27
002F06A4 2019-04-15 08:08:28 21.9 17 27.1
002F06A4 2019-04-15 07:35:17 21.9 17 26.9
002F06A4 2019-04-15 07:02:04 21.9 17 27
002F06A4 2019-04-15 06:28:53 21.8 17 27
002F06A4 2019-04-15 05:55:41 21.7 18 26.9
002F06A4 2019-04-15 05:22:29 21.7 18 26.8
002F06A4 2019-04-15 04:49:18 21.7 18 27
002F06A4 2019-04-15 04:16:06 21.7 18 27.1
002F06A4 2019-04-15 03:42:55 21.7 18 27.1
002F06A4 2019-04-15 03:09:44 21.7 18 27.1
002F06A4 2019-04-15 02:36:31 21.7 18 27.1
002F06A4 2019-04-15 02:03:20 21.7 18 26.9
002F06A4 2019-04-15 01:30:09 21.7 18 26.9
002F06A4 2019-04-15 00:56:57 21.7 18 26.6
002F06A4 2019-04-15 00:23:45 21.7 18 26.6
002F06A4 2019-04-14 23:50:34 21.7 18 26.8
002F06A4 2019-04-14 23:17:24 21.7 18 26.9
002F06A4 2019-04-14 22:44:12 21.8 18 27
002F06A4 2019-04-14 22:11:01 21.9 18 26.9
002F06A4 2019-04-14 21:37:50 21.9 19 26.8
002F06A4 2019-04-14 21:04:39 21.9 19 26.9
002F06A4 2019-04-14 20:31:28 21.9 19 26.8
002F06A4 2019-04-14 19:58:16 21.9 19 26.8
002F06A4 2019-04-14 19:25:06 21.9 19 26.8
002F06A4 2019-04-14 18:51:55 21.9 19 26.8
002F06A4 2019-04-14 18:18:46 21.9 18 26.8
002F06A4 2019-04-14 17:45:36 21.9 18 26.8
002F06A4 2019-04-14 17:12:26 21.9 18 26.7
002F06A4 2019-04-14 16:39:15 21.9 18 26.7
002F06A4 2019-04-14 16:06:04 21.9 19 26.9
002F06A4 2019-04-14 15:32:54 21.8 19 27
002F06A4 2019-04-14 14:59:43 21.9 19 26.8
002F06A4 2019-04-14 14:26:31 21.9 19 26.8
002F06A4 2019-04-14 13:53:21 21.9 19 26.6
002F06A4 2019-04-14 13:20:09 21.9 19 26.7
002F06A4 2019-04-14 12:46:57 21.9 19 26.9
002F06A4 2019-04-14 12:13:45 21.9 19 26.9
002F06A4 2019-04-14 11:40:34 21.9 19 27
002F06A4 2019-04-14 11:07:21 21.9 19 27.1
002F06A4 2019-04-14 10:34:10 21.9 19 27.1
002F06A4 2019-04-14 10:00:58 21.9 19 26.9
002F06A4 2019-04-14 09:27:46 21.9 19 26.8
002F06A4 2019-04-14 08:54:34 21.9 19 26.7
002F06A4 2019-04-14 08:21:22 21.9 19 26.7
002F06A4 2019-04-14 07:48:10 21.8 18 26.7
002F06A4 2019-04-14 07:14:57 21.9 18 26.7
002F06A4 2019-04-14 06:41:46 21.8 18 26.8
002F06A4 2019-04-14 06:08:35 21.8 18 26.8
002F06A4 2019-04-14 05:35:22 21.9 18 26.6
002F06A4 2019-04-14 05:02:10 21.9 18 26.6
002F06A4 2019-04-14 04:28:58 21.9 18 26.6
002F06A4 2019-04-14 03:55:46 21.9 18 26.7
002F06A4 2019-04-14 03:22:34 21.9 18 26.6
002F06A4 2019-04-14 02:49:23 21.9 18 26.6
002F06A4 2019-04-14 02:16:12 21.9 18 26.4
002F06A4 2019-04-14 01:43:01 21.9 18 26.2
002F06A4 2019-04-14 01:09:51 21.9 18 26.2
002F06A4 2019-04-14 00:36:41 21.9 18 26.3
002F06A4 2019-04-14 00:03:29 21.9 18 26.3
002F06A4 2019-04-13 23:30:19 21.9 18 26.5
002F06A4 2019-04-13 22:57:09 21.9 18 26.3
002F06A4 2019-04-13 22:23:59 21.9 18 26.3
002F06A4 2019-04-13 21:50:48 22.1 18 26
002F06A4 2019-04-13 21:17:37 22.1 18 26.1
002F06A4 2019-04-13 20:44:26 22.1 18 26.1
002F06A4 2019-04-13 20:11:14 22.1 18 26.4
002F06A4 2019-04-13 19:38:02 22.1 18 26.5
002F06A4 2019-04-13 19:04:51 22.1 18 26.5
002F06A4 2019-04-13 18:31:39 22.1 18 26.5
002F06A4 2019-04-13 17:58:28 22.1 18 26.6
002F06A4 2019-04-13 17:25:17 22.1 18 26.8
002F06A4 2019-04-13 16:52:06 22.1 18 26.8
002F06A4 2019-04-13 16:18:54 22.1 18 27
002F06A4 2019-04-13 15:45:42 22.3 18 27
002F06A4 2019-04-13 15:12:31 22.3 18 27
002F06A4 2019-04-13 14:39:22 22.3 18 27
002F06A4 2019-04-13 14:06:11 22.3 18 26.8
002F06A4 2019-04-13 13:33:01 22.3 18 27
002F06A4 2019-04-13 12:59:50 22.3 18 26.9
002F06A4 2019-04-13 12:26:40 22.3 18 27
002F06A4 2019-04-13 11:53:28 22.3 18 27
002F06A4 2019-04-13 11:20:18 22.3 18 27
002F06A4 2019-04-13 10:47:06 22.3 18 26.8
002F06A4 2019-04-13 10:13:54 22.3 18 27
002F06A4 2019-04-13 09:40:42 22.3 18 26.7
002F06A4 2019-04-13 09:07:29 22.3 18 26.7
002F06A4 2019-04-13 08:34:16 22.3 18 26.8
002F06A4 2019-04-13 08:01:03 22.3 18 26.7
002F06A4 2019-04-13 07:27:51 22.2 18 26.6
002F06A4 2019-04-13 06:54:38 22.3 18 26.6
002F06A4 2019-04-13 06:21:25 22.3 18 26.3
002F06A4 2019-04-13 05:48:14 22.3 18 26.4
002F06A4 2019-04-13 05:15:02 22.3 18 26.4
002F06A4 2019-04-13 04:41:51 22.3 18 26.3
002F06A4 2019-04-13 04:08:39 22.3 18 26.5
002F06A4 2019-04-13 03:35:27 22.3 18 26.5
002F06A4 2019-04-13 03:02:14 22.3 18 26.5
002F06A4 2019-04-13 02:29:03 22.3 18 26.2
002F06A4 2019-04-13 01:55:50 22.4 18 26.2
002F06A4 2019-04-13 01:22:37 22.5 18 26.3
002F06A4 2019-04-13 00:49:25 22.5 18 26.4
002F06A4 2019-04-13 00:16:14 22.5 19 26.5
002F06A4 2019-04-12 23:43:02 22.5 19 26.4
002F06A4 2019-04-12 23:09:50 22.5 19 26.6
002F06A4 2019-04-12 22:36:38 22.6 19 26.5
002F06A4 2019-04-12 22:03:26 22.7 19 26.3
002F06A4 2019-04-12 21:30:13 22.7 19 26.4
002F06A4 2019-04-12 20:56:59 22.7 19 26.4
002F06A4 2019-04-12 20:23:46 22.7 19 26.4
002F06A4 2019-04-12 19:50:33 22.7 18 26.5
002F06A4 2019-04-12 19:17:21 22.7 18 26.7
002F06A4 2019-04-12 18:44:08 22.9 18 26.6
002F06A4 2019-04-12 18:10:56 22.9 17 26.9
002F06A4 2019-04-12 17:37:43 22.9 17 27.2
002F06A4 2019-04-12 17:04:30 23 18 27.3
002F06A4 2019-04-12 16:31:18 22.9 18 27.6
002F06A4 2019-04-12 15:58:05 22.9 18 27
002F06A4 2019-04-12 15:24:51 22.8 18 27.4
002F06A4 2019-04-12 14:51:37 22.7 19 28
002F06A4 2019-04-12 14:18:23 22.3 19 27.1
002F06A4 2019-04-12 13:45:10 21.9 21 24.4
002F06A4 2019-04-12 13:11:57 21.1 23 7.9